This is the latest recevied weather packets stored in our database for station/object KB9PMA-1. If no packets are shown the sender has not sent any weather packets the latest 10 day(s).
| Time | Temp. | Humidity | Pressure | Rain* | Wind** | Luminosity | Snow |
|---|---|---|---|---|---|---|---|
| 1777480693 | 15° C | 80% | 1012.1 hPa | 0 mm | - | - | - |
| 1777480393 | 15° C | 80% | 1012.1 hPa | 0 mm | - | - | - |
| 1777480093 | 15° C | 80% | 1012.2 hPa | 0 mm | - | - | - |
| 1777479793 | 15° C | 80% | 1012.2 hPa | 0 mm | - | - | - |
| 1777479493 | 15° C | 80% | 1012.3 hPa | 0 mm | - | - | - |
| 1777479193 | 15° C | 80% | 1012.3 hPa | 0 mm | - | - | - |
| 1777478893 | 15° C | 78% | 1012.3 hPa | 0 mm | - | - | - |
| 1777478593 | 15° C | 78% | 1012.3 hPa | 0 mm | - | - | - |
| 1777478293 | 15° C | 79% | 1012.3 hPa | 0 mm | - | - | - |
| 1777477993 | 15° C | 80% | 1012.4 hPa | 0 mm | - | - | - |
| 1777477693 | 15° C | 80% | 1012.4 hPa | 0 mm | - | - | - |
| 1777477393 | 15° C | 80% | 1012.4 hPa | 0 mm | - | - | - |
| 1777477093 | 15° C | 79% | 1012.4 hPa | 0 mm | - | - | - |
| 1777476793 | 15° C | 79% | 1012.4 hPa | 0 mm | - | - | - |
| 1777476493 | 15° C | 80% | 1012.4 hPa | 0 mm | - | - | - |
| 1777476193 | 15° C | 80% | 1012.3 hPa | 0 mm | - | - | - |
| 1777475893 | 14.44° C | 81% | 1012.3 hPa | 0 mm | - | - | - |
| 1777475593 | 14.44° C | 82% | 1012.2 hPa | 0 mm | - | - | - |
| 1777475293 | 14.44° C | 82% | 1012.4 hPa | 0 mm | - | - | - |
| 1777474993 | 14.44° C | 82% | 1012.4 hPa | 0 mm | - | - | - |
| 1777474693 | 14.44° C | 83% | 1012.4 hPa | 0 mm | - | - | - |
| 1777474393 | 14.44° C | 85% | 1012.3 hPa | 0 mm | - | - | - |
| 1777474093 | 13.89° C | 88% | 1012.3 hPa | 0 mm | - | - | - |
| 1777473793 | 13.33° C | 86% | 1012.4 hPa | 0 mm | - | - | - |
| 1777473493 | 13.33° C | 90% | 1012.5 hPa | 0 mm | - | - | - |
* Rain latest hour (hover to see other rain measurements)
** Current wind speed in m/s (hover to see current wind gust speed)